BEIDOU-3 M18 (C37)

Last updated on Thu Nov 21 2024 00:03:16 GMT+0000 (Coordinated Universal Time)

1 43707U 18093B 24325.16759241 .00000009 00000+0 00000+0 0 9990 2 43707 54.1981 201.7672 0006608 336.0829 23.9737 1.86229979 40847
UTC large
Height (km)
Speed (km/s)
/
Latitude / Longitude
Inclination (degrees)
Orbital Period (minutes)
Azimuth
Elevation
Range (km)
Doppler Factor

Next 0 passes for location: London (51.5072 / 0.1276)

Sorry there are no passes over London.